This demonstration page uses our WeatherBlox Daily Observations layout. Learn more.

Left ArrowRight Arrow

34.74481, -87.66753

Hourly Observations for September 7, 2019

Temp ( °F °C ) Dew Point ( °F °C ) Humidity (%) Winds ( mph kmh ) Pressure ( in mb ) Visibility ( mi km ) Precip ( " mm )
12:53 am 00:53 Clear 74 23.3 71 21.7 91 91 Calm 29.94 1014 8 13 0.00 0.00
1:53 am 01:53 Clear 75 23.9 71 21.7 88 88 Calm 29.94 1014 8 13 0.00 0.00
2:53 am 02:53 Clear with Mist and Fog 74 23.3 71 21.7 91 91 Calm 29.93 1014 5 8 0.00 0.00
3:53 am 03:53 Clear with Mist and Fog 74 23.3 70 21.1 88 88 Calm 29.94 1014 5 8 0.00 0.00
4:53 am 04:53 Clear 74 23.3 71 21.7 91 91 NNW 3 6 29.95 1014 7 11 0.00 0.00
5:53 am 05:53 Clear 74 23.3 71 21.7 91 91 Calm 29.96 1015 7 11 0.00 0.00
6:16 am 06:16 Clear with Mist and Fog 74 23.3 71 21.7 91 91 Calm 29.97 1015 3 4 0.00 0.00
6:26 am 06:26 Clear with Mist and Fog 74 23.3 71 21.7 91 91 Calm 29.97 1015 6 10 0.00 0.00
6:35 am 06:35 Sunny with Mist and Fog 73 22.8 70 21.1 90 90 Calm 29.98 1015 2 3 0.00 0.00
6:53 am 06:53 Sunny with Mist and Fog 74 23.3 72 22.2 94 94 Calm 29.98 1015 1 1 0.00 0.00
7:01 am 07:01 Sunny with Mist and Fog 75 23.9 72 22.2 90 90 Calm 29.98 1015 2 3 0.00 0.00
7:19 am 07:19 Sunny with Mist and Fog 76 24.4 73 22.8 91 91 Calm 29.99 1016 3 5 0.00 0.00
7:53 am 07:53 Sunny 78 25.6 73 22.8 85 85 Calm 29.99 1016 8 13 0.00 0.00
8:53 am 08:53 Mostly Cloudy 80 26.7 72 22.2 76 76 NNE 5 7 29.99 1016 10 16 0.00 0.00
9:53 am 09:53 Mostly Sunny 83 28.3 72 22.2 70 70 Calm 29.99 1016 10 16 0.00 0.00
10:53 am 10:53 Sunny 88 31.1 73 22.8 61 61 VRB 7 11 29.98 1015 10 16 0.00 0.00
11:53 am 11:53 Sunny 90 32.2 72 22.2 56 56 NW 7 11 29.98 1015 10 16 0.00 0.00
12:53 pm 12:53 Mostly Cloudy 92 33.3 72 22.2 52 52 VRB 6 9 29.96 1015 10 16 0.00 0.00
1:53 pm 13:53 Partly Cloudy 92 33.3 72 22.2 52 52 NNW 5 7 29.94 1014 10 16 0.00 0.00
2:53 pm 14:53 Cloudy 93 33.9 70 21.1 47 47 N 5 7 29.93 1014 10 16 0.00 0.00
3:53 pm 15:53 Mostly Sunny 93 33.9 69 20.6 46 46 NNW 8 13 29.92 1013 10 16 0.00 0.00
4:53 pm 16:53 Sunny 92 33.3 68 20 46 46 NW 7 11 29.92 1013 10 16 0.00 0.00
5:53 pm 17:53 Sunny 89 31.7 68 20 50 50 N 8 13 29.92 1013 10 16 0.00 0.00
6:53 pm 18:53 Sunny 85 29.4 66 18.9 53 53 NNW 6 9 29.94 1014 10 16 0.00 0.00
7:53 pm 19:53 Clear 79 26.1 62 16.7 56 56 N 6 9 29.95 1014 10 16 0.00 0.00
8:53 pm 20:53 Clear 78 25.6 63 17.2 60 60 N 5 7 29.96 1015 10 16 0.00 0.00
9:53 pm 21:53 Clear 75 23.9 64 17.8 69 69 Calm 29.97 1015 10 16 0.00 0.00
10:53 pm 22:53 Clear 75 23.9 64 17.8 69 69 N 3 6 29.97 1015 10 16 0.00 0.00
11:53 pm 23:53 Clear 74 23.3 64 17.8 71 71 NNE 5 7 29.98 1015 10 16 0.00 0.00

Powered by AerisWeather